GW0518 Weather Reports


Display with metric or nautical units.
time (UTC)temp
F
wind
direction
speed
MPH
gust
MPH
rain 1hr
in
rain 24hr
in
rain mn
in
humidity
%
barometer
mb
20260510023311 53 265 4.0 14.0 0.08 0.08 0.08 89 1008.8
20260510022813 54 298 3.0 10.0 0.07 0.07 0.07 88 1008.6
20260510022536 54 280 3.0 10.0 0.06 0.06 0.05 87 1008.5
20260510021812 54 275 3.0 11.0 0.04 0.04 0.04 87 1008.4
20260510021311 55 249 4.0 11.0 0.02 0.02 0.02 86 1008.4
20260510020811 55 244 5.0 15.0 0.01 0.01 0.01 86 1008.4
20260510020312 55 331 6.0 19.0 0.00 0.00 0.00 85 1008.2
20260510020030 56 281 5.0 19.0 0.00 0.00 0.00 86 1008.1
20260510015312 56 293 5.0 11.0 0.00 0.00 0.00 87 1007.8
20260510014812 56 222 4.0 11.0 0.00 0.00 0.00 87 1006.6
20260510014527 56 187 5.0 10.0 0.00 0.00 0.00 87 1006.3
20260510013812 56 190 5.0 14.0 0.00 0.00 0.00 87 1006.3
20260510013312 56 195 5.0 14.0 0.00 0.00 0.00 87 1006.1
20260510012811 56 182 5.0 10.0 0.00 0.00 0.00 86 1006.0
20260510012311 56 211 5.0 10.0 0.00 0.00 0.00 86 1006.0
20260510012030 56 197 4.0 9.0 0.00 0.00 0.00 86 1006.1
20260510011538 56 196 4.0 10.0 0.00 0.00 0.00 85 1006.0
20260510010811 56 206 4.0 11.0 0.00 0.00 0.00 85 1005.9
20260510010313 56 200 4.0 11.0 0.00 0.00 0.00 85 1005.9
20260510005811 56 211 4.0 13.0 0.00 0.00 0.00 85 1005.9
20260510005313 56 198 4.0 13.0 0.00 0.00 0.00 85 1005.7
20260510004812 56 185 4.0 13.0 0.00 0.00 0.00 85 1005.6
20260510004311 56 205 4.0 13.0 0.00 0.00 0.00 85 1005.5
20260510003811 56 193 4.0 11.0 0.00 0.00 0.00 85 1005.4
20260510003311 56 197 4.0 11.0 0.00 0.00 0.00 85 1005.5
20260510002312 56 175 5.0 12.0 0.00 0.00 0.00 84 1005.5
20260510001311 56 210 4.0 11.0 0.00 0.00 0.00 83 1005.6
20260510001030 57 173 4.0 9.0 0.00 0.00 0.00 82 1005.5
20260510000532 57 203 4.0 9.0 0.00 0.00 0.00 82 1005.6
20260509235811 57 174 4.0 10.0 0.00 0.00 0.00 82 1005.7
20260509235311 57 197 4.0 10.0 0.00 0.00 0.00 81 1005.8
20260509234812 58 220 4.0 12.0 0.00 0.00 0.00 81 1005.7
20260509234312 58 199 4.0 12.0 0.00 0.00 0.00 80 1005.6
20260509233811 58 186 4.0 9.0 0.00 0.00 0.00 79 1005.5
20260509233312 58 185 4.0 9.0 0.00 0.00 0.00 79 1005.7
20260509232811 59 225 4.0 11.0 0.00 0.00 0.00 79 1005.6
20260509232312 59 199 5.0 11.0 0.00 0.00 0.00 79 1005.4
20260509231811 59 194 5.0 14.0 0.00 0.00 0.00 79 1005.5
20260509231312 60 188 5.0 14.0 0.00 0.00 0.00 78 1005.6
20260509230312 59 204 5.0 13.0 0.00 0.00 0.00 78 1005.5
20260509225811 59 213 5.0 13.0 0.00 0.00 0.00 78 1005.3
20260509225311 60 192 6.0 16.0 0.00 0.00 0.00 77 1005.3
20260509224811 60 218 6.0 16.0 0.00 0.00 0.00 77 1005.4
20260509224311 60 199 6.0 14.0 0.00 0.00 0.00 77 1005.2
20260509223811 60 181 6.0 12.0 0.00 0.00 0.00 76 1005.4
20260509223312 61 186 5.0 12.0 0.00 0.00 0.00 76 1005.5
20260509222811 61 178 4.0 11.0 0.00 0.00 0.00 76 1005.5
20260509222311 61 202 5.0 12.0 0.00 0.00 0.00 76 1005.6
20260509221811 61 203 5.0 12.0 0.00 0.00 0.00 76 1005.6
20260509221312 61 183 6.0 11.0 0.00 0.00 0.00 76 1005.5
20260509220808 61 202 6.0 11.0 0.00 0.00 0.00 76 1005.5
20260509220307 61 211 5.0 12.0 0.00 0.00 0.00 76 1005.6
20260509215807 61 212 6.0 14.0 0.00 0.00 0.00 77 1005.6
20260509215307 61 193 7.0 14.0 0.00 0.00 0.00 76 1005.6
20260509214807 61 168 6.0 13.0 0.00 0.00 0.00 75 1005.6
20260509214307 62 214 6.0 14.0 0.00 0.00 0.00 75 1005.6
20260509214033 62 182 5.0 14.0 0.00 0.00 0.00 77 1005.5
20260509213307 62 188 6.0 17.0 0.00 0.00 0.00 76 1005.6
20260509212807 61 244 7.0 17.0 0.00 0.00 0.00 76 1005.6
20260509212307 62 158 6.0 13.0 0.00 0.00 0.00 75 1005.6
20260509211808 62 186 5.0 17.0 0.00 0.00 0.00 76 1005.6
20260509211534 62 213 5.0 17.0 0.00 0.00 0.00 76 1005.5
20260509210807 62 200 5.0 12.0 0.00 0.00 0.00 77 1005.6
20260509210309 61 246 5.0 12.0 0.00 0.00 0.00 77 1005.7
20260509205807 61 172 6.0 15.0 0.00 0.00 0.00 77 1005.7
20260509205308 61 198 7.0 16.0 0.00 0.00 0.00 76 1005.7
20260509205037 61 175 6.0 16.0 0.00 0.00 0.00 76 1005.6
20260509204307 61 199 5.0 14.0 0.00 0.00 0.00 77 1005.8
20260509204029 61 171 5.0 14.0 0.00 0.00 0.00 77 1005.8
20260509203307 61 244 7.0 24.0 0.00 0.00 0.00 77 1005.8
20260509202807 61 209 7.0 24.0 0.00 0.00 0.00 76 1005.8
20260509202307 61 182 7.0 16.0 0.00 0.00 0.00 78 1005.9
20260509201807 61 221 8.0 16.0 0.00 0.00 0.00 78 1006.0
20260509201306 60 195 8.0 16.0 0.00 0.00 0.00 77 1006.0
20260509200807 60 136 6.0 13.0 0.00 0.00 0.00 78 1006.0
20260509200307 60 179 6.0 14.0 0.00 0.00 0.00 77 1006.0
20260509195807 61 171 6.0 14.0 0.00 0.00 0.00 78 1006.1
20260509195307 61 182 7.0 14.0 0.00 0.00 0.00 77 1006.2
20260509194807 61 206 6.0 17.0 0.00 0.00 0.00 76 1006.2
20260509194307 62 190 6.0 17.0 0.00 0.00 0.00 75 1006.3
20260509193807 62 186 6.0 18.0 0.00 0.00 0.00 77 1006.3
20260509193536 61 181 7.0 18.0 0.00 0.00 0.00 76 1006.3
20260509192808 61 173 7.0 15.0 0.00 0.00 0.00 77 1006.5
20260509192306 61 220 7.0 17.0 0.00 0.00 0.00 78 1006.6
20260509191805 60 150 7.0 17.0 0.00 0.00 0.00 77 1006.6
20260509191305 60 218 7.0 14.0 0.00 0.00 0.00 78 1006.6
20260509190805 60 184 7.0 13.0 0.00 0.00 0.00 77 1006.6
20260509190528 60 207 6.0 16.0 0.00 0.00 0.00 77 1006.7
20260509185804 61 168 6.0 16.0 0.00 0.00 0.00 78 1006.7
20260509185306 61 238 6.0 12.0 0.00 0.00 0.00 76 1006.8
20260509184805 61 243 5.0 12.0 0.00 0.00 0.00 77 1006.8
20260509184305 61 273 6.0 13.0 0.00 0.00 0.00 79 1006.9
20260509183805 61 219 6.0 13.0 0.00 0.00 0.00 81 1006.9
20260509183304 60 175 6.0 15.0 0.00 0.00 0.00 79 1007.0
20260509182805 60 194 6.0 15.0 0.00 0.00 0.00 80 1007.0
20260509182526 60 165 6.0 15.0 0.00 0.00 0.00 79 1007.0
20260509181806 60 180 5.0 15.0 0.00 0.00 0.00 78 1007.0
20260509181305 60 186 5.0 19.0 0.00 0.00 0.00 79 1007.0
20260509181022 60 213 6.0 19.0 0.00 0.00 0.00 77 1007.1
20260509180027 60 225 6.0 12.0 0.00 0.00 0.00 79 1007.0
20260509175301 60 215 5.0 10.0 0.00 0.00 0.00 80 1007.1
20260509174801 59 183 5.0 13.0 0.00 0.00 0.00 83 1007.1
20260509174301 58 234 6.0 13.0 0.00 0.00 0.00 81 1007.2
20260509173301 58 225 6.0 15.0 0.00 0.00 0.00 81 1007.2
20260509172802 57 154 5.0 15.0 0.00 0.00 0.00 81 1007.3
20260509172301 57 244 4.0 10.0 0.00 0.00 0.00 82 1007.2
20260509171800 57 224 4.0 11.0 0.00 0.00 0.00 81 1007.2
20260509171301 57 249 5.0 11.0 0.00 0.00 0.00 81 1007.2
20260509170800 57 180 5.0 13.0 0.00 0.00 0.00 81 1007.3
20260509170300 57 240 4.0 13.0 0.00 0.00 0.00 81 1007.3
20260509165803 57 214 5.0 13.0 0.00 0.00 0.00 82 1007.4
20260509165301 57 205 4.0 13.0 0.00 0.00 0.00 82 1007.4
20260509164800 57 158 4.0 9.0 0.00 0.00 0.00 83 1007.4
20260509164301 57 221 4.0 11.0 0.00 0.00 0.00 83 1007.4
20260509163800 56 197 4.0 11.0 0.00 0.00 0.00 84 1007.6
20260509163300 56 194 4.0 9.0 0.00 0.00 0.00 84 1007.8
20260509163028 56 205 4.0 9.0 0.00 0.00 0.00 83 1007.7
20260509161801 56 213 5.0 12.0 0.00 0.00 0.00 83 1007.9
20260509161300 56 182 4.0 11.0 0.00 0.00 0.00 83 1007.9
20260509160801 56 205 5.0 11.0 0.00 0.00 0.00 83 1008.1
20260509160522 56 211 5.0 10.0 0.00 0.00 0.00 83 1008.1
20260509155801 56 170 4.0 10.0 0.00 0.00 0.00 84 1008.2
20260509155301 56 221 5.0 10.0 0.00 0.00 0.00 84 1008.1
20260509154800 56 195 5.0 11.0 0.00 0.00 0.00 84 1008.1
20260509154301 56 181 4.0 11.0 0.00 0.00 0.00 84 1008.2
20260509154024 56 193 5.0 11.0 0.00 0.00 0.00 85 1008.3
20260509153301 56 196 5.0 11.0 0.00 0.00 0.00 86 1008.4
20260509152800 55 198 4.0 11.0 0.00 0.00 0.00 85 1008.4
20260509152301 55 198 5.0 11.0 0.00 0.00 0.00 87 1008.4
20260509151803 55 207 5.0 10.0 0.00 0.00 0.00 87 1008.5
20260509151302 54 148 4.0 10.0 0.00 0.00 0.00 87 1008.5
20260509150800 54 183 4.0 9.0 0.00 0.00 0.00 87 1008.6
20260509150301 54 180 4.0 9.0 0.00 0.00 0.00 87 1008.6
20260509145803 54 205 5.0 9.0 0.00 0.00 0.00 86 1008.7
20260509145300 54 190 5.0 11.0 0.00 0.00 0.00 86 1008.7
20260509144801 54 159 4.0 11.0 0.00 0.01 0.00 86 1008.7
20260509144301 55 186 4.0 10.0 0.00 0.01 0.00 87 1008.7
20260509143801 54 194 4.0 9.0 0.00 0.01 0.00 88 1008.7
20260509143520 54 191 4.0 9.0 0.00 0.02 0.00 88 1008.8
20260509142800 54 226 3.0 9.0 0.00 0.02 0.00 89 1008.8
20260509141801 53 211 3.0 7.0 0.00 0.02 0.00 90 1008.8
20260509141301 53 185 4.0 10.0 0.00 0.02 0.00 90 1008.8
20260509140800 53 204 4.0 10.0 0.00 0.02 0.00 90 1008.8
20260509140301 52 177 3.0 8.0 0.00 0.02 0.00 91 1008.8
20260509135800 52 200 4.0 9.0 0.00 0.02 0.00 91 1008.9
20260509135301 52 180 5.0 9.0 0.00 0.02 0.00 91 1008.8
20260509134801 51 173 4.0 9.0 0.00 0.02 0.00 91 1008.8
20260509134525 51 173 4.0 9.0 0.00 0.04 0.00 91 1008.8
20260509133801 51 177 4.0 9.0 0.00 0.06 0.00 91 1008.8
20260509133520 51 198 4.0 11.0 0.00 0.07 0.00 91 1008.9
20260509133026 51 191 4.0 11.0 0.00 0.08 0.00 91 1009.0
20260509132301 51 253 3.0 9.0 0.00 0.08 0.00 91 1009.1
20260509132024 50 226 3.0 10.0 0.00 0.08 0.00 92 1009.1
20260509131301 50 196 3.0 10.0 0.00 0.09 0.00 91 1009.0
20260509130802 50 209 3.0 7.0 0.00 0.09 0.00 91 1009.1
20260509130300 50 184 4.0 9.0 0.00 0.09 0.00 92 1009.1
20260509125801 49 190 5.0 12.0 0.00 0.09 0.00 91 1009.1
20260509125301 49 206 5.0 13.0 0.00 0.09 0.00 91 1009.0
20260509125029 49 179 6.0 13.0 0.00 0.09 0.00 91 1008.9
20260509124301 49 220 6.0 14.0 0.00 0.09 0.00 91 1008.9
20260509123801 49 160 5.0 14.0 0.00 0.09 0.00 91 1008.9
20260509123526 49 203 4.0 13.0 0.00 0.09 0.00 91 1009.0
20260509122801 49 205 3.0 13.0 0.00 0.09 0.00 92 1009.0
20260509122301 49 195 3.0 10.0 0.00 0.09 0.00 91 1009.0
20260509121301 48 194 3.0 9.0 0.00 0.09 0.00 91 1009.1
20260509120800 48 190 3.0 9.0 0.00 0.09 0.00 91 1009.2
20260509120301 47 199 2.0 9.0 0.00 0.09 0.00 91 1009.3
20260509120026 47 186 2.0 6.0 0.00 0.09 0.00 91 1009.4
20260509115301 47 186 3.0 6.0 0.00 0.09 0.00 92 1009.3
20260509114801 47 187 2.0 6.0 0.00 0.09 0.00 92 1009.4
20260509114300 46 186 2.0 8.0 0.00 0.09 0.00 91 1009.4
20260509114021 46 186 2.0 8.0 0.00 0.09 0.00 92 1009.5
20260509113300 45 84 1.0 3.0 0.00 0.09 0.00 91 1009.5
20260509113022 45 84 1.0 4.0 0.00 0.09 0.00 91 1009.5
20260509112306 45 84 1.0 4.0 0.00 0.09 0.00 91 1009.4
20260509111300 44 83 0.0 2.0 0.00 0.09 0.00 91 1009.5
20260509110026 44 83 0.0 1.0 0.00 0.09 0.00 91 1009.4
20260509105305 44 83 0.0 1.0 0.00 0.09 0.00 91 1009.4
20260509105021 43 83 0.0 3.0 0.00 0.09 0.00 91 1009.5
20260509104300 43 83 0.0 3.0 0.00 0.09 0.00 90 1009.4
20260509103801 43 83 1.0 2.0 0.00 0.09 0.00 90 1009.4
20260509103301 43 83 1.0 2.0 0.00 0.09 0.00 90 1009.4
20260509102801 42 83 1.0 2.0 0.00 0.09 0.00 90 1009.3
20260509102301 42 83 1.0 3.0 0.00 0.09 0.00 90 1009.4
20260509101801 42 83 1.0 3.0 0.00 0.09 0.00 90 1009.4
20260509101301 42 83 0.0 3.0 0.00 0.09 0.00 90 1009.5
20260509101017 42 83 0.0 0.0 0.00 0.09 0.00 90 1009.5
20260509100531 42 83 0.0 0.0 0.00 0.09 0.00 90 1009.5
20260509095803 42 83 0.0 0.0 0.00 0.09 0.00 90 1009.4
20260509095301 42 83 0.0 0.0 0.00 0.09 0.00 90 1009.4
20260509094801 42 83 0.0 0.0 0.00 0.09 0.00 90 1009.4
20260509094301 42 83 0.0 0.0 0.00 0.09 0.00 90 1009.3
20260509094028 42 82 1.0 4.0 0.00 0.09 0.00 90 1009.2
20260509093302 42 83 1.0 4.0 0.00 0.09 0.00 90 1009.1
20260509092801 41 82 0.0 1.0 0.00 0.09 0.00 90 1009.1
20260509092532 41 82 0.0 4.0 0.00 0.09 0.00 89 1009.1
20260509091801 41 82 1.0 4.0 0.00 0.09 0.00 90 1009.0
20260509091300 41 82 1.0 4.0 0.00 0.09 0.00 90 1009.0
20260509091026 41 82 1.0 4.0 0.00 0.09 0.00 90 1009.1
20260509090301 41 81 1.0 3.0 0.00 0.09 0.00 90 1009.2
20260509090020 40 81 1.0 4.0 0.00 0.09 0.00 90 1009.3
20260509085301 40 81 1.0 4.0 0.00 0.09 0.00 90 1009.4
20260509084801 40 81 1.0 3.0 0.00 0.09 0.00 89 1009.5
20260509084301 40 81 0.0 3.0 0.00 0.09 0.00 89 1009.5
20260509083801 39 81 0.0 0.0 0.00 0.09 0.00 89 1009.6
20260509083300 39 81 0.0 0.0 0.00 0.09 0.00 89 1009.8
20260509082801 39 81 0.0 0.0 0.00 0.09 0.00 89 1009.8
20260509082306 39 81 0.0 0.0 0.00 0.09 0.00 88 1009.9
20260509081802 39 81 0.0 0.0 0.00 0.09 0.00 88 1009.9
20260509081301 39 81 0.0 0.0 0.00 0.09 0.00 88 1009.9
20260509080801 39 81 0.0 0.0 0.00 0.09 0.00 88 1009.8
20260509080522 39 81 0.0 0.0 0.00 0.09 0.00 87 1010.0
20260509075801 39 81 0.0 0.0 0.00 0.09 0.00 87 1010.0
20260509075534 39 81 0.0 0.0 0.00 0.09 0.00 87 1009.9
20260509075022 39 81 0.0 0.0 0.00 0.09 0.00 87 1010.0
20260509074300 39 81 0.0 0.0 0.00 0.09 0.00 86 1010.0
20260509073801 39 81 0.0 0.0 0.00 0.09 0.00 86 1010.0
20260509073522 39 81 0.0 0.0 0.00 0.09 0.00 86 1010.0
20260509072801 40 81 0.0 0.0 0.00 0.09 0.00 86 1010.1
20260509072306 40 81 0.0 0.0 0.00 0.09 0.00 86 1010.1
20260509071801 40 81 0.0 0.0 0.00 0.10 0.00 86 1010.2
20260509071301 40 81 0.0 0.0 0.00 0.10 0.00 86 1010.2
20260509070801 40 81 0.0 0.0 0.00 0.10 0.00 86 1010.1
20260509070021 40 81 0.0 0.0 0.00 0.10 0.00 86 1010.2
20260509065305 40 81 0.0 0.0 0.00 0.10 0.00 86 1010.2
20260509064801 41 81 0.0 0.0 0.00 0.10 0.00 86 1010.2
20260509064522 41 81 0.0 0.0 0.00 0.10 0.00 86 1010.2
20260509063800 41 81 0.0 0.0 0.00 0.10 0.00 86 1010.4
20260509063300 41 81 0.0 0.0 0.00 0.10 0.00 86 1010.4
20260509062801 41 81 0.0 0.0 0.00 0.10 0.00 87 1010.3
20260509062300 41 81 0.0 0.0 0.00 0.10 0.00 87 1010.5
20260509061801 41 81 0.0 0.0 0.00 0.10 0.00 87 1010.5
20260509061301 41 81 0.0 0.0 0.00 0.10 0.00 87 1010.5
20260509060801 41 81 0.0 0.0 0.00 0.10 0.00 87 1010.6
20260509060300 41 81 0.0 0.0 0.00 0.10 0.00 88 1010.7
20260509055801 41 81 0.0 0.0 0.00 0.11 0.00 89 1010.8
20260509055301 41 81 0.0 0.0 0.00 0.12 0.00 89 1010.9
20260509054802 40 81 0.0 0.0 0.00 0.12 0.00 89 1010.9
20260509054301 40 81 0.0 0.0 0.00 0.12 0.00 90 1011.0
20260509054017 40 81 0.0 0.0 0.00 0.12 0.00 90 1011.0
20260509053301 40 81 0.0 0.0 0.00 0.12 0.00 89 1011.1
20260509052801 40 81 0.0 0.0 0.00 0.12 0.00 89 1011.2
20260509052301 40 81 0.0 0.0 0.00 0.12 0.00 89 1011.2
20260509051805 40 81 0.0 0.0 0.00 0.12 0.00 89 1011.3
20260509051304 40 81 0.0 0.0 0.00 0.12 0.00 89 1011.3
20260509050801 40 81 0.0 0.0 0.00 0.12 0.00 89 1011.4
20260509050301 39 81 0.0 0.0 0.00 0.12 0.00 89 1011.4
20260509045802 39 81 0.0 0.0 0.00 0.12 0.00 89 1011.3
20260509045301 39 81 0.0 0.0 0.00 0.12 0.00 89 1011.4
20260509044801 39 81 0.0 0.0 0.00 0.12 0.00 89 1011.4
20260509044300 39 81 0.0 0.0 0.00 0.12 0.00 89 1011.5
20260509043801 39 81 0.0 0.0 0.00 0.12 0.00 89 1011.5
20260509043300 39 81 0.0 0.0 0.00 0.12 0.00 89 1011.5
20260509042801 38 81 0.0 0.0 0.00 0.12 0.00 88 1011.5
20260509042300 38 81 0.0 1.0 0.00 0.12 0.00 88 1011.6
20260509042017 38 81 0.0 1.0 0.00 0.12 0.00 88 1011.5
20260509041302 38 81 0.0 2.0 0.00 0.12 0.00 87 1011.7
20260509040801 38 81 0.0 2.0 0.00 0.12 0.00 87 1011.7
20260509035801 38 81 0.0 0.0 0.00 0.12 0.12 86 1011.6
20260509035301 38 81 0.0 0.0 0.00 0.12 0.12 86 1011.6
20260509034801 38 81 0.0 0.0 0.00 0.12 0.12 85 1011.7
20260509034301 38 81 0.0 0.0 0.00 0.12 0.12 85 1011.7
20260509033300 38 81 0.0 0.0 0.00 0.12 0.12 85 1011.9
20260509033024 38 81 0.0 0.0 0.00 0.12 0.12 85 1011.7
20260509032523 38 81 0.0 0.0 0.00 0.12 0.12 84 1011.7
20260509031801 38 81 0.0 0.0 0.00 0.12 0.12 84 1011.7
20260509031525 38 81 0.0 0.0 0.00 0.12 0.12 83 1011.7
20260509030800 38 81 0.0 0.0 0.00 0.12 0.12 82 1011.7
20260509030301 38 81 0.0 0.0 0.00 0.12 0.12 82 1011.7
20260509025759 39 81 0.0 0.0 0.00 0.12 0.12 81 1011.7
20260509025259 39 81 0.0 0.0 0.00 0.12 0.12 81 1011.7
20260509024759 39 81 0.0 0.0 0.00 0.12 0.12 81 1011.9
20260509024300 39 81 0.0 0.0 0.00 0.12 0.12 80 1011.9